Showing default

ELEKTRO-L 2, 41105

Orbit data source: Space-Track

ELEKTRO-L 2, 41105 is a Commonwealth of Independent States-origin payload satellite in GEO that was launched on Fri, 11 Dec 2015 UTC via a ZENIT-3SLBF launch vehicle from the Tyuratam Missile And Space Complex (TTMTR). Payload-class satellites include a variety of spacecraft equipped with specific instruments for various scientific and technological missions. These include communications satellites like Starlink; space stations such as the ISS; scientific satellites like the Hubble; Earth observation satellites from companies like Planet Labs, Umbra, and HawkEye 360; GPS; miniature CubeSats for education and research; and military/defense satellites.

Not visible in the next 10 days
Identifier
41105, 2015-074A
Orbit
GEO
Country
Flag of CISCIS
Related business
Manufacturer
Lavochkin
Mission
Operational Civil Weather
Bus & Motor
NAVIGATOR, Unknown motor
Mass
1,855 kg wet, 1,591 kg dry
Launch date (UTC)
2015-12-11 (11 years ago)
Launch vehicle
ZENIT-3SLBF
Launch site
Tyuratam Missile And Space Complex (TTMTR)
Object type
Payload
Rocket body
Debris
Shape & HBR
Box + 1 Pan + 1 Ant, 5.0 m
Radar Cross Section
11.105 m², Large (>1 m²)

Expand to show TLE details & history
Last TLE update: 4 days ago

TLE from 4 days ago
0 ELEKTRO-L 2
1 41105U 15074A   26169.03651196 -.00000126  00000-0  00000-0 0  9993
2 41105   6.6975  70.5132 0000903 256.1704 298.2263  1.00270556 38516
Epoch: 2026-06-18T00:52Z
TLE epoch observation values (Epoch: 2026-06-18T00:52:34.633Z)
Latitude
-1.68526°
Longitude
-14.60454°
Altitude
35,784.868 km
Speed
3.075 km/s
True Right ascension
17h 39m 18s
True Declination
-1° 41' 01"
Sunlit
Object was in daylight at epoch
Visualization orbit readout
Latitude
Unknown
Longitude
Unknown
Altitude
Unknown
Speed
Unknown
Apparent Right ascension
Unknown
Apparent Declination
Unknown
Sunlit
N/A
Visualization observer readout
Local Sidereal Time
21:40:59
Azimuth
Unknown
Elevation
Unknown
Doppler factor
Unknown
Orbital elements
Apogee altitude
35,791.796 km
Perigee altitude
35,784.181 km
Semi-major axis
42,166.126 km
Eccentricity
0.00009
Inclination
6.6975°
RAAN
70.5132°
Arg. of periapsis
256.1704°
True anomaly
298.21718°
Mean anomaly
298.2263°
Eccentric anomaly
298.22174°
Mean motion
0.25067 °/min
Orbital period
1,436.17 mins
BSTAR
0
Loading maneuver chart data...
Computing Atmospheric mass density...
Loading historical data...
Loading historical data...
Loading historical data...
Loading historical data...
Loading historical data...
Loading historical data...
Loading historical data...

Documentation

Showing up to 5 results
|